Wind_Speed
25 25 26 26 26 26 25 25 25 24 24 24 24 25 24 24 23 22 22 23 23 23 22 22 22 22 21 21 20 20 20 21 22 22 22 24 26 27 28 29 29 29 28 28 28 27 28 29 29 29 28 28 28 28 27 26 26 26 25 25 25 25 24 24 23 23 23 22 22 21 21 22 22 22
29 29 29 29 29 29 28 27 27 27 27 27 28 28 27 26 25 25 24 24 25 26 25 25 25 24 24 23 23 23 23 23 23 22 23 23 25 26 26 27 29 30 30 29 29 29 29 29 29 29 29 29 29 28 28 27 27 26 25 25 25 24 24 23 23 23 22 22 21 21 20 21 22 22
31 32 32 32 31 31 31 30 30 30 30 30 30 30 30 28 27 27 26 25 27 28 28 27 27 27 27 26 26 26 27 26 25 25 25 25 25 25 25 26 27 29 31 32 31 31 31 31 30 30 30 29 29 28 28 28 28 27 26 26 25 24 24 22 22 22 22 22 21 20 20 21 21 22
34 34 34 33 33 33 32 32 32 32 32 32 32 32 31 31 30 30 29 27 28 30 30 29 29 30 30 30 30 30 29 29 29 27 27 27 27 26 26 26 27 28 30 32 33 33 33 32 32 31 31 30 30 29 29 29 29 28 27 27 26 25 24 22 21 21 22 22 21 20 20 20 21 22
36 35 35 35 35 35 34 34 34 33 33 33 33 33 33 34 33 32 31 30 29 31 32 32 32 32 32 32 32 32 32 32 32 31 30 30 29 28 28 28 28 28 29 30 31 33 34 34 33 32 32 31 30 30 30 30 30 30 29 28 27 26 24 23 22 22 22 22 22 21 21 20 21 22
37 37 37 37 37 36 35 35 35 34 34 34 34 35 35 35 35 34 34 33 32 32 34 35 35 35 34 34 34 34 35 35 35 34 33 33 33 32 31 30 30 30 30 30 30 31 32 34 34 34 33 31 31 31 31 32 31 31 30 29 28 27 26 24 23 22 23 23 23 22 21 21 21 21
38 37 37 37 37 37 36 36 36 36 36 36 36 36 36 36 36 36 36 36 36 35 36 38 38 37 36 36 35 36 37 38 37 37 36 36 36 35 34 33 33 32 32 31 31 30 31 32 33 34 34 33 32 32 32 32 32 32 31 31 30 28 27 26 24 24 24 24 24 23 22 21 21 21
38 37 37 37 37 36 36 37 37 37 37 38 38 38 38 38 38 39 39 39 39 39 39 40 40 40 39 39 39 38 39 39 39 39 39 38 38 38 38 37 35 35 34 33 32 32 31 32 33 34 34 34 34 33 33 33 33 33 32 32 31 30 29 27 26 25 25 25 25 25 24 22 22 22
37 37 37 37 37 37 37 38 38 39 39 39 40 40 41 41 41 41 42 42 42 42 41 41 42 43 42 42 41 41 40 40 41 41 41 41 40 40 40 40 38 38 37 35 34 33 33 33 34 34 34 34 34 34 34 34 34 33 33 33 32 32 30 29 28 27 27 27 27 26 25 24 23 23
36 37 37 37 38 38 38 39 40 41 41 42 42 42 43 44 44 44 44 45 45 44 44 43 43 44 44 43 43 43 42 41 41 42 43 42 42 42 42 42 41 41 39 38 37 36 36 35 35 34 34 34 34 35 35 36 35 34 34 33 33 33 32 31 30 30 29 28 28 27 27 25 24 24
37 37 38 39 40 40 40 41 42 42 43 43 44 44 45 45 46 46 46 47 47 46 45 44 43 43 45 45 44 44 43 43 41 42 43 43 44 44 43 43 43 43 42 41 40 40 38 37 36 35 34 34 34 35 36 36 37 36 35 35 34 33 33 33 33 32 31 30 30 29 28 27 26 25
39 39 40 41 41 42 42 43 44 44 44 44 45 45 46 46 47 47 47 47 47 47 46 44 42 42 43 45 45 44 44 44 43 43 44 44 44 45 45 44 44 44 44 44 43 42 41 39 37 36 35 35 35 35 36 36 37 37 37 37 36 35 35 35 35 35 34 33 31 30 29 29 27 26
41 42 42 43 43 43 44 44 45 45 45 45 45 46 46 47 47 47 46 46 46 46 46 44 43 42 41 42 44 44 44 44 43 43 44 44 44 45 46 45 46 45 45 45 45 44 44 42 40 38 36 36 36 35 35 36 37 37 38 38 38 38 37 37 37 36 36 35 34 32 31 31 30 28
44 44 45 45 45 46 46 46 46 46 46 46 46 46 46 47 47 47 46 46 46 46 46 45 45 44 43 42 43 43 44 44 43 43 44 44 44 45 45 45 46 47 46 46 46 46 45 44 41 39 38 38 38 37 36 36 37 38 39 38 39 39 39 39 38 38 38 37 36 35 33 33 32 31
45 46 46 47 47 48 48 48 47 47 47 47 47 47 47 47 47 47 47 47 47 47 47 47 47 46 45 45 45 45 45 45 44 43 44 44 44 45 45 45 46 48 48 47 46 46 46 45 43 41 40 39 39 39 37 37 37 38 39 39 39 40 40 40 40 39 39 38 37 37 36 35 34 34
46 46 46 46 47 47 48 48 48 48 48 48 48 48 48 48 48 49 48 48 48 48 48 48 48 48 47 47 47 47 47 46 46 45 44 44 44 45 45 45 46 48 49 48 46 46 47 47 44 42 41 41 41 41 39 39 38 38 38 39 40 40 40 41 41 41 40 39 38 38 38 38 37 36
45 46 46 46 47 47 48 49 49 49 49 49 50 50 50 50 50 50 50 50 50 50 50 49 49 50 49 49 49 49 49 49 48 47 46 46 45 45 45 45 46 47 49 48 48 46 47 48 46 44 43 43 43 42 41 40 39 38 38 38 39 40 40 41 41 42 42 41 40 40 40 40 39 38
45 46 46 47 48 48 49 49 50 50 51 51 51 51 52 52 52 52 52 52 52 52 52 52 51 51 51 51 50 50 50 50 50 49 48 47 47 46 45 44 45 47 48 49 49 47 47 48 47 45 45 45 44 43 43 42 41 40 38 38 38 38 39 39 40 41 42 42 42 41 41 41 40 40
46 47 47 47 48 48 49 49 49 50 51 51 51 51 52 52 52 53 53 53 53 53 53 53 53 53 53 53 53 52 52 52 52 51 50 49 49 48 46 45 45 46 48 49 49 48 48 49 48 46 46 46 45 44 44 43 43 41 40 39 38 38 37 38 38 39 41 42 43 43 42 42 42 41
46 47 47 47 47 47 48 48 48 48 49 50 50 50 50 51 51 52 52 53 53 53 53 53 53 53 53 53 53 53 53 53 53 53 52 51 51 50 48 47 46 46 47 49 49 48 47 49 50 47 47 47 46 45 45 44 44 43 42 41 40 39 38 37 37 38 39 40 42 43 44 44 43 43
46 46 47 47 47 47 47 47 47 47 47 47 48 48 49 49 49 50 51 52 52 52 52 52 52 52 52 52 52 52 52 53 53 53 53 52 52 51 50 49 48 47 47 48 49 48 47 49 50 49 48 48 47 46 45 46 45 44 43 42 41 41 40 39 38 37 37 38 39 41 43 44 45 45
46 47 47 48 47 47 47 47 47 47 47 47 48 48 48 49 49 49 50 50 50 50 51 51 51 51 51 52 51 51 51 52 52 52 52 52 52 52 51 50 49 48 48 48 49 49 48 49 51 51 50 49 48 46 46 47 47 46 44 43 42 42 42 41 39 38 37 38 38 39 41 43 44 45
47 47 48 49 49 49 49 48 48 49 49 49 49 49 49 48 48 49 49 48 48 49 49 49 49 49 50 51 51 51 51 51 51 51 51 51 52 51 51 51 51 49 48 48 50 50 48 49 50 51 51 50 48 47 47 47 47 47 46 44 43 43 42 42 41 39 39 38 38 38 40 41 43 44
47 48 49 49 49 48 48 48 48 49 49 49 49 49 48 48 48 48 48 47 46 46 46 46 46 46 47 48 49 49 50 50 50 50 50 51 51 51 51 51 51 50 48 49 50 50 49 49 50 51 51 50 49 48 47 47 47 47 46 45 44 44 43 43 42 41 40 39 39 39 39 40 41 42
46 46 47 48 48 48 48 48 48 48 48 48 47 47 46 46 46 46 45 45 44 44 43 44 44 44 44 45 45 46 47 48 49 50 51 51 51 51 50 51 51 51 49 50 51 51 50 50 50 50 50 50 49 48 48 47 46 46 47 46 45 45 44 43 43 42 41 40 40 39 38 39 39 40
45 45 47 48 49 48 47 46 45 44 43 43 43 43 43 43 43 43 43 43 43 42 43 43 43 44 44 43 43 44 44 45 47 48 49 50 50 51 51 50 50 50 49 50 51 51 51 50 50 50 50 50 50 49 48 47 46 46 47 46 46 45 45 44 43 43 42 41 40 40 39 38 38 38
45 45 46 46 45 43 41 39 39 38 38 38 38 38 39 40 40 40 41 41 42 43 44 44 43 44 44 43 43 42 42 43 43 44 45 46 48 49 50 50 50 49 49 50 50 51 51 50 50 50 50 50 50 49 48 47 47 47 47 46 46 46 45 45 44 44 43 42 42 41 40 39 38 38
42 41 40 39 38 36 35 34 35 35 35 35 36 36 36 37 37 37 38 39 40 41 42 43 43 43 44 44 43 43 42 41 41 42 42 42 44 45 45 47 48 49 50 50 50 50 51 50 50 50 51 50 50 49 49 48 47 47 47 47 46 46 46 46 45 44 45 44 44 43 42 41 40 38
37 37 37 36 35 34 33 32 32 34 35 36 36 35 35 34 34 35 35 36 36 37 38 39 40 41 43 44 44 43 43 42 42 42 41 42 42 42 43 43 44 46 49 50 50 50 51 51 50 50 50 50 50 50 50 50 49 48 48 47 47 47 47 46 45 45 45 46 46 45 44 43 41 40
36 37 36 34 33 32 32 31 31 34 36 38 37 36 34 33 33 33 33 34 34 34 35 36 37 38 40 43 44 44 43 43 42 41 41 41 42 42 43 43 42 43 46 48 50 50 51 51 51 51 51 50 50 50 50 51 50 48 47 47 47 47 47 47 46 46 46 46 46 46 45 44 42 41
36 36 36 34 31 30 30 30 31 33 35 35 35 34 32 30 29 29 29 30 30 32 33 34 35 36 38 40 42 43 42 42 41 41 42 41 41 42 42 42 42 42 43 46 48 49 50 51 51 51 51 51 50 50 51 51 51 49 48 47 47 47 47 47 47 46 46 46 46 46 46 45 43 41
35 34 34 33 31 29 28 29 31 32 31 30 29 29 27 25 25 24 25 25 27 28 29 31 32 33 34 36 38 39 40 39 40 41 41 41 40 40 41 40 40 41 43 44 45 47 49 50 51 51 51 51 50 51 52 52 51 50 48 47 47 47 47 47 47 47 46 46 46 46 46 45 44 42
34 33 32 31 30 28 28 29 30 29 27 25 24 23 22 21 21 22 22 22 23 24 25 27 28 29 30 31 32 34 35 36 37 39 39 39 38 39 39 38 38 39 40 41 43 45 47 48 49 50 51 51 51 51 52 52 51 51 49 48 47 47 46 47 47 47 46 46 46 46 46 45 44 43
34 33 30 28 27 27 27 27 27 25 24 23 21 20 20 20 20 20 20 20 20 21 22 23 24 25 26 27 29 30 31 33 34 35 36 36 36 36 37 37 37 37 37 38 40 42 44 46 47 48 49 50 50 51 51 51 51 51 50 49 48 48 47 47 47 46 46 46 46 46 45 45 45 44
31 30 27 24 23 24 24 23 22 22 21 21 20 20 20 20 20 19 19 18 18 18 19 20 21 23 24 26 27 28 29 31 33 34 34 34 34 34 35 35 35 36 36 36 38 39 41 43 45 46 47 48 49 49 50 50 51 51 50 50 49 49 48 48 47 46 46 46 46 46 46 45 45 44
26 24 21 19 19 20 19 19 19 19 19 19 19 19 19 18 18 18 18 17 17 17 17 18 19 20 21 23 24 26 27 28 30 31 32 32 33 33 33 34 34 35 35 35 36 38 39 40 41 42 43 44 45 46 47 48 49 49 49 49 49 49 49 48 48 47 46 46 46 47 46 45 45 44
23 21 17 15 15 15 16 16 17 17 17 18 18 18 18 17 17 17 17 18 18 18 18 18 19 19 20 21 22 24 25 26 27 28 29 30 31 31 32 32 33 34 35 35 36 37 38 39 40 41 41 41 42 43 44 45 46 47 48 49 49 49 49 48 48 47 46 46 46 46 46 45 44 43
21 19 16 15 14 14 14 15 15 15 16 16 16 17 17 17 17 17 17 18 18 19 19 19 19 19 20 20 21 23 24 25 26 27 28 29 29 30 30 31 32 33 34 36 36 37 38 38 39 40 40 41 41 42 42 42 43 44 45 46 47 48 48 47 47 47 46 45 44 44 44 44 43 42
18 17 16 16 15 15 14 14 14 15 15 15 16 16 16 16 17 17 17 17 18 18 18 19 19 19 19 20 21 22 23 25 26 27 27 28 29 29 29 29 31 32 33 34 36 37 38 38 39 39 39 40 41 42 42 41 41 41 41 42 44 45 46 46 46 46 46 45 44 44 44 43 42 41
16 16 16 16 16 15 15 15 15 15 15 14 15 15 16 16 17 17 17 18 18 17 17 18 19 19 19 19 20 21 22 24 25 26 27 27 27 27 28 28 29 30 31 32 34 35 36 37 38 39 39 40 41 41 42 41 40 40 39 39 40 41 43 45 45 45 45 45 44 44 43 43 42 41
16 16 16 16 16 16 15 15 15 15 14 15 16 16 16 16 17 17 17 17 17 17 17 17 19 19 19 20 22 22 22 23 23 24 25 25 25 25 26 27 27 28 29 30 32 33 34 36 37 39 39 39 39 39 40 40 40 40 39 39 39 39 40 42 44 45 45 45 44 43 42 42 41 40
16 16 16 16 16 15 15 15 15 15 15 17 18 17 17 18 18 18 18 17 16 16 15 15 16 18 20 20 21 22 22 23 23 24 24 24 24 24 24 24 25 26 27 28 31 33 34 35 36 36 37 37 36 37 37 38 39 39 39 39 39 38 38 39 40 42 44 44 43 42 40 39 39 38
16 16 17 17 16 16 16 15 15 16 17 17 18 18 19 20 20 20 20 19 17 15 14 14 16 19 22 23 24 23 22 22 22 23 24 23 23 23 23 22 23 24 25 27 29 32 32 32 32 32 33 34 34 34 35 36 37 37 38 38 37 37 37 37 38 39 41 42 41 40 38 37 37 37
16 16 17 18 17 17 16 15 16 17 18 18 19 21 23 23 22 21 19 18 17 17 17 17 18 20 22 24 25 26 25 23 22 22 23 23 22 21 21 21 21 22 23 25 28 29 30 29 29 29 30 30 31 32 33 33 34 35 35 35 35 35 36 36 36 37 38 39 40 39 37 36 35 36
17 17 18 18 17 17 16 17 18 19 19 18 21 24 25 24 23 22 19 18 17 17 17 17 18 19 21 22 23 23 23 23 22 21 21 21 20 19 19 19 19 20 21 23 24 26 26 26 27 27 27 27 29 30 30 31 31 32 32 33 33 34 34 35 35 35 36 37 38 37 35 34 34 35
Wind_Direction
285 285 284 284 283 282 281 279 278 276 273 271 270 269 269 268 266 264 263 263 264 263 263 263 263 263 264 265 265 264 262 261 261 260 258 255 254 253 253 252 252 252 251 249 247 247 248 248 249 249 249 250 251 251 251 251 251 252 253 255 257 259 261 262 264 264 264 263 261 259 257 255 250 246
282 282 282 282 281 280 279 276 274 272 271 270 270 268 267 266 265 264 262 261 262 262 261 261 262 262 263 263 263 263 262 261 261 262 261 259 257 256 255 254 252 252 252 250 248 248 247 248 249 249 249 249 250 251 251 251 251 251 252 253 254 256 258 260 261 261 260 259 259 258 257 256 253 248
279 279 280 280 279 279 277 275 272 270 269 268 269 269 269 268 266 264 262 259 259 260 260 260 261 261 261 261 260 260 260 259 259 259 260 261 260 260 260 257 254 251 251 251 250 249 248 247 248 249 249 249 249 251 252 252 252 251 252 252 253 254 256 258 259 258 257 255 256 257 257 256 254 250
278 279 279 279 278 277 275 273 271 269 268 267 267 268 268 267 265 262 261 259 258 260 261 259 258 258 258 258 258 258 258 259 259 258 258 259 260 261 262 260 257 253 252 251 251 249 248 248 247 248 249 249 249 250 251 252 252 251 251 251 252 253 255 256 257 256 254 252 253 256 257 257 255 251
280 280 279 278 277 276 274 273 271 269 268 266 266 265 265 265 265 264 264 262 259 260 262 260 257 255 255 255 257 258 258 258 259 258 259 259 259 259 260 260 259 257 254 253 252 250 249 248 248 248 249 249 249 249 250 250 250 250 250 251 251 252 254 255 255 254 252 251 251 254 256 257 255 252
279 279 278 277 276 275 273 272 270 270 269 268 266 265 265 265 266 265 265 263 261 259 260 260 258 257 257 256 255 256 257 257 256 256 257 257 257 257 257 257 258 258 257 256 254 252 249 248 248 248 248 249 249 249 249 249 249 250 250 250 251 252 253 254 254 254 252 250 250 252 255 256 255 252
277 276 276 275 274 273 272 271 270 269 268 268 267 266 266 265 265 265 264 264 263 261 260 261 261 261 260 258 255 254 254 254 254 254 254 255 256 256 255 255 255 256 256 256 256 255 252 249 248 248 248 247 248 248 249 249 249 249 249 250 250 251 252 252 253 253 252 250 250 250 252 254 254 251
275 274 274 273 272 271 271 271 270 269 269 268 268 267 267 266 266 266 265 265 265 264 263 264 264 264 262 260 258 255 253 253 254 254 253 253 254 255 255 255 254 254 255 256 256 257 256 253 251 250 248 247 246 246 246 247 248 249 249 249 249 250 251 251 252 252 251 250 249 249 250 252 252 249
275 274 273 273 272 272 271 271 271 271 270 269 269 269 269 268 268 267 267 266 266 266 265 265 266 266 265 264 262 259 256 255 255 255 254 253 252 253 254 254 254 254 254 255 255 256 257 256 254 253 252 249 247 245 245 245 246 247 248 249 249 250 250 250 250 250 250 250 249 248 248 250 250 249
275 275 275 274 274 273 273 273 272 272 272 272 271 271 270 270 269 269 268 268 267 267 266 266 266 266 265 265 263 262 260 256 255 255 255 254 253 252 252 253 254 255 255 254 254 254 254 254 254 254 253 252 249 247 246 245 244 244 245 247 248 249 250 250 250 249 249 250 250 248 247 247 248 249
276 276 276 276 275 275 274 274 273 273 273 273 272 271 271 270 269 269 269 268 268 267 267 266 266 265 265 265 263 262 261 259 256 254 253 253 253 253 252 252 253 254 255 255 254 253 252 253 253 254 253 253 251 250 249 248 246 245 245 246 246 246 248 249 249 249 249 249 249 250 249 247 246 248
278 277 276 276 276 275 275 275 274 273 273 272 271 271 270 270 269 269 268 268 267 267 267 266 266 265 265 265 264 262 261 260 257 255 253 252 251 251 251 251 252 252 253 254 254 254 253 253 253 253 253 253 252 252 251 250 249 247 246 246 245 245 245 247 248 249 249 249 249 250 250 248 246 245
279 279 278 278 277 276 276 275 274 274 273 272 271 270 270 269 269 268 268 267 267 266 266 266 265 265 264 264 264 263 262 260 258 256 254 253 251 251 250 250 251 251 251 252 254 254 254 254 253 253 253 254 253 251 250 250 249 248 246 245 245 245 244 245 246 247 248 249 249 249 250 250 248 245
282 281 282 281 280 279 278 277 276 275 274 273 272 271 270 270 269 268 268 267 267 266 265 264 264 263 262 262 262 262 261 260 258 256 254 253 252 251 250 249 250 250 250 250 251 253 253 254 253 253 252 253 253 252 250 248 247 248 248 246 245 245 245 245 245 246 247 248 249 248 249 249 250 248
283 283 283 282 282 281 280 278 277 276 275 274 273 272 271 270 269 268 268 267 266 266 265 264 263 262 261 260 260 260 260 260 259 257 255 253 252 250 249 248 248 249 249 248 249 251 252 252 252 252 252 252 253 253 251 249 247 247 248 248 247 245 244 244 245 246 247 247 248 249 248 249 249 250
283 283 282 281 280 280 279 278 277 276 275 275 274 272 271 270 269 269 268 267 266 265 264 264 263 262 261 260 260 259 259 259 259 257 256 254 252 250 249 247 247 248 248 247 247 249 251 251 250 251 251 251 251 252 252 251 249 248 247 248 248 246 245 244 244 245 246 246 247 247 248 248 248 249
283 282 282 280 279 278 278 277 277 276 275 274 273 272 271 270 269 268 267 266 265 265 264 263 262 262 261 260 260 259 259 259 258 258 256 255 253 251 249 247 246 247 247 247 245 246 249 250 249 249 250 250 250 251 251 251 250 249 248 247 247 247 246 245 244 244 244 244 245 246 247 247 248 248
283 282 281 280 280 279 278 277 276 275 274 274 273 272 271 270 269 268 267 266 265 264 263 263 262 262 261 260 259 259 259 258 258 257 256 256 255 253 251 248 246 246 246 246 244 244 246 249 248 247 248 248 249 249 250 250 250 249 248 247 247 247 247 247 246 245 244 244 244 244 246 246 247 247
283 282 281 280 280 279 278 277 276 275 274 274 273 272 271 270 269 268 267 266 265 264 263 262 262 261 261 260 259 258 258 258 257 257 256 255 254 253 251 249 247 246 246 246 245 242 244 248 248 246 246 247 247 247 248 249 249 249 248 248 247 248 248 248 247 245 245 244 244 244 244 245 246 247
284 283 282 281 280 279 278 278 277 276 275 275 274 273 272 271 270 269 268 267 265 264 263 262 261 261 260 260 259 258 258 257 257 257 256 255 253 252 251 250 248 246 246 247 246 243 242 246 248 246 245 246 245 245 246 247 248 248 248 248 248 248 248 248 248 247 246 245 245 245 245 245 245 245
286 285 284 283 282 281 280 279 278 277 276 275 274 274 273 272 271 270 269 268 267 265 264 263 262 261 260 260 259 259 258 257 257 256 255 255 254 253 251 250 249 247 246 246 247 244 242 244 246 246 245 245 244 243 243 244 246 247 247 247 247 248 248 248 247 247 247 246 246 246 246 245 245 245
290 289 288 287 286 286 285 284 283 281 279 278 276 274 273 272 271 270 269 268 268 267 265 264 263 262 260 259 258 258 258 258 257 256 255 255 254 253 252 251 249 248 247 247 246 245 242 242 244 245 245 244 244 243 242 243 244 245 246 246 247 248 249 248 248 247 248 248 247 247 246 245 245 245
293 292 291 291 290 289 288 287 286 284 282 280 278 275 274 272 271 270 269 268 267 266 265 265 263 262 261 260 258 257 257 257 257 256 256 255 254 253 252 251 249 247 247 248 247 245 243 242 243 244 244 244 244 244 243 243 243 243 244 244 246 247 248 248 248 248 248 248 248 248 247 246 245 244
294 293 293 292 291 291 290 288 286 284 282 280 279 277 275 273 272 270 269 267 266 265 264 264 263 262 261 260 259 258 257 256 256 255 255 254 253 252 251 250 249 247 246 247 247 245 243 243 243 243 243 243 244 245 244 243 243 243 243 243 244 245 246 247 248 249 248 248 249 248 248 247 247 245
294 293 293 293 292 291 290 287 286 284 283 281 280 278 276 274 272 270 269 267 265 264 263 263 263 263 263 262 260 258 256 255 254 253 253 252 252 251 250 249 249 247 246 246 247 246 243 242 243 243 243 243 242 244 245 244 243 243 243 243 243 243 244 245 247 248 249 249 248 248 248 248 248 248
295 294 293 293 292 291 290 288 286 285 284 282 281 279 277 275 273 270 268 266 265 263 263 262 262 262 262 261 261 259 257 255 253 253 252 252 251 251 250 249 248 247 246 246 247 247 245 243 242 242 243 242 242 242 243 244 244 243 243 242 242 242 242 243 245 246 248 248 247 248 248 249 249 249
297 296 294 293 292 291 291 290 289 289 288 286 284 281 279 276 274 271 268 265 264 263 263 263 263 262 261 260 260 259 257 255 254 253 253 252 252 251 250 249 248 247 246 246 247 247 246 244 243 242 242 241 241 241 242 243 244 244 243 242 241 241 242 243 243 244 245 246 247 248 250 250 250 250
299 298 296 295 294 293 292 291 291 291 291 290 288 285 282 279 277 274 271 268 266 264 264 263 262 261 260 258 257 257 256 255 255 254 254 253 253 252 252 250 248 246 245 245 245 246 245 244 243 243 242 241 240 240 241 242 243 243 243 243 241 241 241 242 242 242 243 245 246 247 249 251 251 251
302 301 299 297 296 294 292 290 291 293 294 294 293 290 286 282 279 275 273 270 268 267 266 264 261 258 256 256 255 255 254 254 255 255 255 255 254 253 252 251 249 247 245 243 243 243 244 243 242 242 242 242 240 239 239 240 241 242 242 242 242 242 242 242 242 242 243 244 245 245 247 249 250 251
306 305 303 299 296 292 289 290 293 296 296 296 295 293 289 285 280 276 273 272 270 268 266 265 262 257 253 252 253 253 254 254 254 256 257 258 257 255 253 251 250 249 247 244 241 241 242 242 241 241 241 241 241 240 240 239 240 241 241 242 242 243 243 242 242 242 243 244 245 245 246 246 248 250
309 307 305 300 295 290 288 289 293 295 294 293 294 295 293 289 285 281 278 275 271 268 266 265 263 259 255 252 251 252 254 255 256 257 258 259 258 256 254 252 250 249 248 245 242 240 240 241 241 240 240 240 240 240 240 239 239 240 241 241 241 242 243 243 242 242 243 243 244 245 245 246 246 248
308 307 305 300 294 289 288 290 294 295 295 294 296 297 295 292 289 287 283 278 272 268 266 265 264 262 259 255 254 254 255 256 257 257 258 258 257 255 254 253 251 249 248 246 243 241 239 239 240 240 239 239 239 239 239 239 239 239 241 241 241 241 242 242 243 242 242 243 243 243 244 245 246 247
305 303 301 299 294 290 290 293 296 298 298 298 298 297 295 293 292 290 287 283 277 272 269 267 266 264 262 259 257 256 256 256 256 257 257 256 255 254 254 253 251 248 246 245 243 241 239 238 238 239 238 238 238 238 238 238 238 239 240 241 241 241 241 241 242 242 242 243 243 243 243 244 245 247
305 300 296 293 292 292 293 296 299 301 300 300 299 297 295 295 295 294 292 288 283 278 274 271 269 267 265 263 260 259 258 257 257 257 256 256 254 253 252 252 250 248 245 243 241 241 240 239 238 238 238 238 237 237 237 237 237 238 238 239 240 241 241 241 241 241 241 242 243 243 244 244 244 245
313 306 298 289 289 293 298 301 303 304 304 304 303 301 299 299 298 298 296 293 288 284 279 276 273 271 269 268 266 264 262 260 259 258 257 256 254 252 250 249 248 247 245 243 241 241 240 240 239 238 238 237 237 237 236 236 237 237 237 238 239 239 240 241 241 241 241 241 242 243 243 244 245 245
328 322 313 301 296 301 306 308 307 308 310 309 308 306 304 303 303 303 302 299 295 292 287 282 277 273 271 269 268 266 264 263 261 260 259 258 256 253 251 249 248 247 245 243 242 241 241 240 240 239 238 237 237 236 236 235 236 236 237 237 237 238 239 240 241 241 240 240 241 242 243 244 245 245
344 343 337 327 319 317 316 313 312 312 313 312 311 310 309 309 308 307 305 302 300 297 294 290 285 280 277 273 270 268 266 265 263 263 262 260 258 256 254 251 249 248 246 244 242 241 240 240 240 239 238 237 236 235 235 234 234 235 235 236 236 237 238 239 240 241 241 240 240 241 242 243 245 246
348 350 349 343 337 331 327 323 322 322 321 319 317 315 314 314 312 309 306 305 303 300 296 292 288 284 281 278 275 271 269 266 264 263 262 261 260 258 255 253 251 248 247 245 243 241 240 240 239 239 238 237 235 234 234 233 233 233 233 234 235 236 237 238 239 240 241 241 241 241 241 242 244 246
346 348 348 346 344 342 340 339 338 336 333 330 328 325 323 319 315 311 308 306 303 302 299 296 291 288 286 284 281 277 273 269 265 263 262 262 260 258 255 253 251 249 247 245 243 242 240 240 240 239 238 236 235 234 233 232 232 232 233 234 234 235 236 237 238 239 240 240 240 241 241 242 243 245
347 349 350 350 351 351 349 349 349 347 345 345 344 340 336 330 323 318 314 310 307 305 302 299 295 293 291 288 285 281 276 272 268 265 263 262 260 258 254 251 250 249 247 245 243 241 240 239 239 239 238 236 235 234 232 231 231 232 233 234 235 235 236 236 237 237 238 239 239 239 240 241 242 244
354 356 358 357 357 358 357 358 359 358 358 357 354 349 343 339 333 328 321 314 309 304 300 297 296 295 293 289 285 282 278 273 270 267 265 263 260 257 254 251 250 249 247 245 242 241 239 237 236 236 236 235 234 234 233 231 231 231 232 233 235 236 237 237 237 237 237 238 238 239 239 241 242 243
2 3 4 3 3 4 5 5 5 5 3 360 356 351 346 342 338 333 326 318 311 304 300 300 302 303 300 297 293 288 281 275 270 268 267 264 261 258 255 252 249 247 245 242 240 238 237 236 235 235 235 234 233 232 232 231 230 231 231 232 234 236 238 239 239 239 238 238 238 239 240 241 242 243
5 6 6 6 7 9 11 11 9 5 0 357 354 350 345 342 338 334 328 322 317 313 310 309 308 306 303 301 299 295 290 281 273 268 266 264 261 259 257 253 250 246 242 239 238 236 236 236 235 235 234 233 231 231 230 229 229 230 230 232 234 237 239 241 242 241 240 240 240 240 240 241 242 243
6 7 7 8 10 11 11 11 7 1 356 354 351 348 345 342 340 337 331 326 324 322 318 314 310 305 301 298 295 293 290 286 278 269 264 262 260 258 256 254 250 246 242 238 236 235 234 233 233 233 232 230 228 227 227 228 228 229 230 231 234 238 241 242 242 241 240 239 238 239 240 241 242 243
7 8 8 8 9 9 9 7 3 359 356 354 350 348 348 348 349 350 348 344 340 337 334 331 329 326 322 316 309 300 292 286 279 271 262 258 257 255 254 251 248 244 241 238 235 233 231 229 228 229 228 225 223 223 225 226 227 228 230 232 235 238 241 242 242 240 237 236 236 237 239 240 242 243
Height
5885 5885 5884 5884 5883 5883 5882 5882 5881 5881 5880 5880 5879 5878 5878 5878 5878 5878 5877 5877 5876 5876 5876 5875 5875 5875 5874 5874 5874 5874 5873 5873 5872 5872 5873 5873 5872 5872 5872 5873 5873 5873 5874 5875 5875 5876 5877 5877 5878 5878 5879 5879 5880 5881 5881 5881 5882 5883 5883 5884 5885 5885 5885 5885 5885 5886 5886 5886 5886 5887 5888 5888 5889 5889
5882 5881 5881 5880 5880 5879 5879 5878 5878 5877 5876 5876 5875 5875 5874 5874 5874 5874 5874 5874 5873 5873 5873 5872 5872 5872 5871 5871 5871 5871 5870 5870 5870 5869 5869 5869 5869 5869 5869 5870 5870 5870 5870 5871 5872 5872 5873 5873 5874 5875 5875 5876 5877 5877 5878 5878 5879 5879 5880 5881 5881 5882 5882 5883 5883 5883 5883 5883 5884 5884 5885 5886 5886 5887
5878 5877 5876 5876 5875 5875 5874 5874 5873 5873 5872 5872 5871 5870 5870 5870 5870 5870 5870 5871 5870 5869 5869 5869 5869 5868 5868 5867 5868 5867 5867 5866 5867 5866 5866 5866 5866 5866 5866 5866 5866 5867 5867 5867 5868 5869 5869 5870 5870 5871 5872 5872 5873 5874 5875 5875 5875 5876 5877 5878 5878 5879 5879 5880 5879 5880 5880 5881 5881 5882 5883 5883 5883 5884
5873 5872 5871 5871 5870 5870 5869 5869 5869 5868 5868 5867 5867 5866 5866 5865 5865 5865 5866 5867 5867 5865 5865 5865 5865 5864 5864 5863 5863 5863 5863 5863 5863 5863 5863 5862 5862 5862 5862 5863 5863 5863 5863 5863 5864 5865 5865 5866 5866 5867 5868 5868 5869 5870 5871 5872 5872 5873 5873 5874 5875 5875 5876 5876 5876 5877 5877 5878 5878 5879 5880 5880 5880 5881
5868 5867 5866 5865 5865 5864 5864 5864 5863 5863 5862 5862 5862 5861 5861 5860 5860 5860 5861 5862 5863 5861 5860 5860 5860 5860 5859 5860 5859 5859 5859 5859 5859 5859 5859 5859 5859 5859 5859 5859 5859 5859 5859 5860 5860 5860 5861 5862 5862 5863 5864 5864 5865 5866 5867 5868 5868 5869 5870 5871 5871 5872 5872 5873 5873 5873 5874 5875 5876 5876 5877 5877 5878 5878
5863 5862 5861 5860 5859 5859 5859 5858 5858 5857 5857 5857 5856 5856 5856 5856 5855 5855 5856 5856 5857 5856 5855 5854 5854 5855 5855 5856 5856 5855 5855 5854 5854 5855 5855 5855 5855 5855 5855 5855 5855 5855 5855 5856 5856 5856 5857 5857 5858 5859 5860 5860 5861 5862 5863 5864 5864 5865 5866 5867 5867 5868 5869 5869 5870 5870 5871 5871 5872 5873 5874 5874 5875 5875
5858 5857 5856 5855 5854 5854 5853 5853 5852 5852 5851 5851 5851 5850 5850 5850 5850 5850 5850 5850 5851 5851 5850 5848 5848 5849 5850 5850 5850 5850 5850 5849 5849 5850 5850 5850 5850 5851 5851 5851 5851 5850 5850 5851 5851 5852 5853 5853 5854 5854 5855 5856 5857 5858 5859 5860 5861 5861 5862 5863 5863 5864 5865 5866 5866 5867 5867 5868 5869 5870 5871 5871 5872 5873
5853 5852 5851 5850 5849 5849 5848 5847 5846 5846 5846 5845 5845 5845 5844 5844 5845 5844 5844 5844 5844 5845 5844 5843 5843 5843 5843 5844 5844 5844 5845 5845 5845 5845 5845 5845 5846 5846 5846 5846 5846 5846 5846 5846 5847 5848 5848 5849 5849 5850 5851 5852 5853 5854 5855 5856 5857 5857 5858 5859 5859 5860 5861 5862 5862 5863 5863 5864 5865 5866 5867 5868 5869 5870
5847 5846 5846 5845 5844 5844 5843 5842 5841 5840 5840 5840 5840 5839 5839 5838 5838 5838 5838 5838 5838 5838 5838 5838 5837 5837 5837 5837 5838 5838 5839 5840 5839 5839 5840 5840 5841 5841 5841 5841 5842 5841 5842 5842 5843 5843 5844 5844 5845 5846 5846 5847 5848 5849 5850 5851 5852 5853 5854 5855 5856 5856 5857 5858 5859 5859 5860 5860 5861 5862 5864 5865 5866 5866
5842 5841 5840 5839 5839 5838 5837 5836 5835 5835 5834 5834 5834 5833 5833 5832 5832 5832 5831 5831 5831 5832 5832 5832 5831 5831 5830 5831 5831 5831 5832 5834 5834 5834 5834 5835 5835 5836 5836 5836 5837 5837 5837 5838 5838 5838 5838 5839 5840 5841 5842 5843 5844 5844 5845 5846 5847 5848 5849 5850 5851 5852 5853 5854 5855 5855 5856 5856 5857 5859 5860 5861 5862 5863
5837 5836 5835 5833 5833 5832 5831 5830 5829 5829 5828 5828 5827 5826 5826 5825 5825 5825 5825 5824 5824 5825 5825 5825 5825 5825 5824 5824 5824 5825 5825 5826 5827 5827 5828 5828 5829 5830 5830 5831 5831 5832 5832 5833 5833 5833 5834 5834 5835 5836 5837 5838 5839 5840 5840 5841 5842 5843 5844 5845 5847 5848 5849 5850 5851 5851 5852 5853 5854 5855 5856 5857 5859 5860
5831 5830 5829 5828 5827 5826 5825 5824 5823 5823 5822 5821 5820 5820 5819 5819 5818 5818 5818 5817 5817 5817 5818 5818 5819 5818 5818 5817 5817 5818 5818 5819 5820 5820 5821 5822 5823 5823 5824 5825 5825 5826 5827 5827 5827 5828 5829 5830 5831 5832 5833 5834 5834 5835 5836 5837 5838 5839 5840 5841 5842 5843 5844 5845 5846 5847 5848 5849 5850 5851 5852 5854 5855 5856
5825 5823 5822 5821 5821 5820 5819 5818 5817 5816 5815 5814 5814 5813 5812 5812 5812 5812 5811 5811 5810 5810 5810 5811 5811 5812 5812 5811 5810 5810 5811 5811 5812 5813 5814 5815 5816 5816 5818 5819 5819 5820 5821 5822 5822 5823 5823 5824 5826 5827 5828 5829 5829 5830 5831 5832 5833 5833 5834 5835 5837 5838 5839 5840 5841 5842 5844 5845 5846 5847 5849 5850 5851 5852
5818 5817 5816 5815 5814 5813 5812 5811 5810 5809 5808 5807 5807 5806 5805 5805 5805 5804 5804 5804 5804 5803 5803 5804 5804 5804 5805 5805 5804 5804 5804 5804 5805 5806 5807 5808 5809 5810 5811 5813 5813 5813 5815 5816 5816 5817 5817 5819 5821 5822 5823 5824 5824 5825 5826 5826 5827 5828 5828 5830 5832 5833 5834 5835 5836 5838 5839 5841 5842 5843 5844 5845 5847 5848
5813 5811 5810 5808 5807 5805 5804 5804 5803 5802 5801 5800 5800 5799 5798 5798 5797 5797 5797 5796 5796 5796 5796 5796 5796 5797 5798 5798 5797 5797 5797 5797 5798 5799 5800 5801 5802 5803 5804 5806 5806 5806 5807 5809 5811 5812 5812 5813 5815 5817 5818 5818 5818 5819 5821 5821 5822 5823 5823 5825 5826 5827 5829 5830 5831 5833 5834 5836 5838 5839 5840 5841 5842 5843
5806 5805 5803 5802 5800 5798 5797 5796 5795 5794 5794 5793 5792 5791 5790 5790 5789 5789 5789 5789 5788 5788 5788 5789 5789 5789 5790 5790 5790 5790 5790 5790 5791 5792 5793 5794 5795 5796 5798 5800 5800 5799 5800 5803 5806 5806 5806 5807 5809 5811 5812 5812 5813 5814 5815 5816 5817 5818 5819 5820 5821 5822 5823 5825 5826 5828 5829 5831 5832 5834 5835 5837 5838 5839
5800 5798 5796 5795 5793 5791 5790 5789 5788 5787 5786 5785 5784 5783 5782 5782 5781 5781 5780 5780 5780 5780 5780 5781 5781 5781 5781 5783 5783 5783 5783 5783 5784 5785 5786 5787 5788 5790 5791 5793 5794 5793 5793 5796 5799 5801 5800 5800 5803 5805 5806 5806 5807 5808 5809 5810 5811 5813 5814 5815 5816 5817 5818 5819 5821 5822 5824 5825 5827 5828 5830 5831 5833 5834
5793 5791 5789 5788 5786 5784 5783 5782 5780 5779 5778 5777 5776 5775 5774 5773 5773 5772 5772 5771 5772 5772 5772 5773 5773 5773 5773 5774 5775 5775 5775 5776 5777 5778 5779 5780 5781 5783 5784 5786 5787 5787 5787 5788 5791 5794 5794 5793 5796 5799 5800 5800 5801 5803 5804 5805 5806 5808 5809 5810 5811 5811 5812 5814 5815 5816 5818 5819 5821 5823 5824 5826 5828 5829
5786 5784 5782 5781 5779 5777 5775 5774 5772 5771 5770 5768 5767 5766 5765 5765 5764 5763 5763 5763 5763 5763 5764 5764 5765 5765 5765 5766 5767 5768 5768 5768 5769 5770 5771 5772 5773 5775 5777 5779 5780 5781 5781 5781 5783 5787 5788 5787 5789 5793 5793 5794 5796 5797 5798 5799 5801 5802 5803 5804 5805 5806 5807 5808 5810 5811 5812 5814 5815 5817 5819 5820 5822 5824
5779 5777 5775 5773 5771 5769 5768 5766 5764 5763 5762 5760 5759 5758 5757 5756 5755 5754 5753 5753 5754 5754 5755 5756 5756 5757 5757 5757 5758 5759 5760 5761 5761 5762 5763 5765 5766 5768 5769 5772 5774 5774 5774 5775 5776 5780 5783 5781 5782 5785 5787 5787 5789 5791 5792 5793 5794 5796 5797 5799 5800 5801 5803 5804 5805 5806 5807 5809 5810 5812 5813 5815 5816 5818
5771 5769 5767 5765 5763 5762 5760 5758 5757 5755 5754 5752 5751 5750 5749 5747 5747 5746 5744 5744 5745 5745 5746 5747 5747 5748 5749 5749 5750 5751 5752 5753 5753 5754 5756 5757 5758 5760 5762 5765 5766 5767 5768 5769 5769 5773 5777 5776 5775 5777 5780 5781 5783 5785 5786 5787 5788 5790 5792 5793 5795 5796 5798 5799 5800 5801 5802 5804 5805 5806 5807 5809 5810 5812
5764 5761 5758 5756 5754 5753 5751 5750 5748 5746 5745 5744 5742 5741 5740 5739 5738 5737 5736 5736 5736 5736 5737 5738 5738 5739 5740 5740 5741 5742 5743 5744 5744 5746 5748 5749 5750 5752 5755 5757 5758 5760 5762 5762 5762 5765 5769 5769 5768 5770 5772 5775 5777 5779 5780 5782 5783 5784 5786 5788 5789 5791 5792 5794 5795 5796 5798 5798 5799 5800 5801 5802 5804 5806
5756 5753 5750 5748 5746 5744 5742 5741 5739 5737 5735 5734 5733 5732 5731 5730 5729 5728 5727 5728 5728 5728 5728 5729 5729 5730 5731 5732 5733 5734 5735 5736 5736 5738 5740 5741 5742 5745 5747 5748 5750 5753 5756 5755 5755 5757 5761 5762 5762 5763 5766 5769 5771 5773 5774 5776 5777 5778 5780 5782 5784 5785 5787 5788 5790 5791 5792 5793 5794 5795 5796 5797 5798 5800
5748 5745 5742 5740 5737 5736 5734 5732 5730 5728 5726 5725 5723 5723 5722 5721 5720 5719 5719 5719 5719 5720 5720 5720 5721 5722 5722 5723 5724 5725 5727 5727 5728 5729 5731 5732 5734 5736 5738 5740 5742 5746 5749 5747 5746 5750 5754 5755 5756 5757 5759 5763 5766 5767 5768 5770 5771 5773 5774 5776 5778 5779 5781 5783 5784 5786 5787 5788 5789 5790 5791 5791 5793 5795
5742 5739 5735 5732 5729 5727 5725 5723 5721 5719 5717 5716 5715 5714 5713 5712 5712 5711 5711 5711 5711 5712 5712 5712 5713 5713 5714 5715 5716 5717 5718 5719 5719 5720 5722 5723 5725 5727 5730 5732 5734 5738 5741 5740 5739 5742 5746 5748 5750 5751 5753 5757 5759 5760 5761 5763 5765 5767 5768 5770 5772 5774 5775 5777 5779 5780 5782 5783 5784 5785 5786 5787 5788 5790
5735 5732 5729 5725 5722 5719 5717 5715 5713 5711 5709 5708 5707 5706 5705 5704 5704 5703 5704 5704 5704 5704 5704 5704 5705 5705 5706 5707 5707 5708 5709 5710 5711 5712 5713 5715 5717 5719 5722 5724 5727 5730 5733 5733 5732 5735 5738 5741 5743 5745 5747 5750 5752 5754 5756 5757 5759 5760 5762 5764 5766 5768 5769 5771 5773 5775 5776 5777 5779 5780 5781 5782 5783 5785
5728 5725 5721 5718 5715 5712 5710 5708 5706 5704 5702 5701 5699 5698 5697 5697 5696 5696 5696 5697 5697 5697 5697 5697 5698 5698 5698 5699 5700 5700 5701 5702 5703 5704 5706 5707 5709 5711 5714 5716 5719 5722 5725 5725 5726 5728 5731 5734 5736 5738 5739 5742 5745 5747 5750 5752 5753 5754 5755 5758 5760 5762 5764 5765 5767 5769 5771 5772 5773 5774 5776 5777 5779 5780
5721 5718 5714 5711 5709 5706 5704 5702 5700 5698 5696 5694 5693 5692 5691 5690 5690 5690 5689 5690 5690 5690 5690 5690 5690 5691 5691 5691 5692 5693 5693 5694 5696 5697 5699 5700 5702 5704 5706 5708 5711 5714 5716 5718 5719 5721 5723 5726 5729 5730 5732 5735 5738 5740 5743 5745 5747 5748 5749 5751 5754 5756 5757 5759 5762 5764 5765 5766 5768 5769 5770 5772 5773 5775
5715 5712 5709 5706 5704 5701 5699 5697 5695 5693 5691 5688 5687 5685 5684 5684 5684 5683 5683 5683 5683 5683 5683 5682 5683 5683 5684 5683 5684 5685 5687 5688 5689 5690 5692 5693 5695 5697 5699 5701 5703 5706 5708 5710 5712 5714 5715 5718 5721 5723 5725 5728 5731 5733 5736 5738 5740 5742 5743 5745 5747 5749 5752 5754 5756 5758 5759 5760 5762 5763 5765 5767 5768 5771
5710 5706 5703 5701 5699 5696 5694 5692 5691 5688 5686 5683 5681 5679 5678 5677 5677 5676 5676 5676 5676 5676 5676 5676 5676 5676 5676 5676 5677 5678 5680 5681 5683 5684 5685 5687 5688 5689 5691 5694 5696 5698 5699 5701 5704 5706 5708 5710 5713 5716 5718 5721 5724 5726 5728 5731 5734 5736 5738 5740 5742 5744 5746 5748 5750 5752 5753 5755 5756 5758 5759 5762 5764 5766
5704 5700 5698 5695 5693 5692 5690 5688 5686 5684 5682 5679 5677 5675 5673 5672 5671 5670 5670 5670 5670 5670 5670 5669 5669 5669 5670 5670 5671 5672 5674 5676 5677 5678 5679 5680 5681 5682 5684 5686 5689 5691 5692 5693 5696 5698 5700 5703 5705 5708 5711 5714 5717 5719 5721 5724 5727 5730 5732 5734 5736 5738 5740 5742 5744 5746 5747 5749 5750 5752 5754 5756 5758 5760
5699 5696 5693 5690 5689 5687 5686 5684 5682 5680 5678 5676 5673 5671 5669 5668 5667 5666 5666 5665 5665 5664 5664 5664 5664 5664 5664 5665 5666 5667 5668 5670 5671 5671 5672 5673 5675 5675 5677 5679 5682 5684 5685 5686 5688 5690 5692 5695 5697 5700 5704 5707 5710 5712 5714 5717 5720 5723 5725 5727 5729 5732 5734 5735 5737 5739 5741 5743 5745 5747 5749 5751 5753 5755
5695 5691 5689 5686 5684 5683 5682 5680 5679 5676 5674 5672 5670 5669 5667 5666 5664 5663 5662 5661 5661 5660 5660 5659 5659 5659 5659 5660 5661 5662 5663 5664 5664 5665 5665 5667 5668 5669 5670 5672 5675 5677 5678 5680 5681 5683 5685 5687 5690 5693 5696 5699 5702 5704 5707 5711 5714 5716 5718 5720 5722 5725 5727 5729 5731 5733 5735 5738 5739 5741 5744 5746 5747 5749
5689 5686 5684 5682 5680 5679 5678 5677 5675 5673 5671 5669 5668 5666 5665 5663 5662 5661 5660 5659 5658 5657 5657 5656 5656 5655 5656 5656 5656 5657 5658 5658 5658 5659 5660 5661 5662 5663 5664 5666 5668 5670 5671 5673 5675 5676 5678 5680 5683 5686 5689 5692 5695 5697 5700 5704 5707 5709 5711 5713 5716 5718 5720 5722 5725 5728 5730 5732 5734 5737 5739 5740 5742 5744
5683 5680 5678 5678 5677 5676 5675 5674 5672 5670 5668 5666 5665 5664 5663 5661 5659 5658 5657 5656 5655 5655 5654 5653 5653 5652 5652 5652 5652 5653 5653 5653 5653 5654 5654 5655 5657 5658 5659 5660 5662 5664 5665 5667 5669 5670 5672 5674 5676 5679 5682 5685 5688 5691 5694 5697 5700 5702 5705 5707 5710 5712 5714 5716 5719 5722 5725 5727 5729 5731 5733 5735 5737 5738
5680 5676 5675 5675 5674 5674 5673 5671 5670 5668 5666 5664 5662 5661 5660 5659 5657 5656 5655 5654 5653 5652 5651 5651 5650 5649 5649 5649 5648 5648 5648 5649 5649 5649 5649 5650 5651 5652 5653 5655 5657 5658 5660 5662 5663 5665 5666 5668 5670 5673 5676 5678 5681 5684 5687 5690 5693 5696 5698 5701 5703 5706 5708 5710 5713 5717 5720 5721 5724 5726 5728 5731 5732 5733
5679 5676 5674 5673 5673 5672 5671 5669 5668 5666 5664 5662 5661 5659 5658 5656 5655 5654 5653 5652 5651 5650 5649 5648 5647 5646 5646 5645 5645 5644 5644 5644 5644 5644 5644 5645 5646 5647 5648 5649 5651 5652 5654 5656 5658 5659 5661 5663 5665 5667 5670 5672 5675 5678 5681 5684 5687 5689 5692 5695 5697 5700 5702 5705 5708 5711 5713 5716 5719 5721 5724 5726 5727 5728
5679 5677 5675 5673 5672 5671 5669 5668 5666 5664 5663 5661 5660 5658 5656 5655 5654 5653 5651 5650 5649 5647 5646 5645 5644 5643 5643 5642 5641 5641 5641 5640 5640 5640 5640 5640 5641 5642 5643 5644 5645 5646 5648 5650 5652 5653 5655 5657 5659 5661 5664 5667 5670 5673 5675 5679 5681 5683 5686 5689 5691 5694 5697 5700 5703 5705 5708 5711 5714 5716 5719 5721 5722 5723
5679 5677 5675 5673 5671 5670 5668 5667 5665 5664 5662 5661 5659 5657 5656 5654 5652 5651 5649 5648 5647 5645 5644 5643 5642 5641 5640 5639 5638 5638 5637 5636 5636 5636 5635 5635 5636 5637 5638 5639 5640 5641 5642 5644 5646 5648 5650 5652 5653 5656 5658 5661 5664 5667 5670 5673 5676 5679 5682 5685 5687 5689 5692 5694 5697 5699 5702 5705 5708 5710 5713 5715 5717 5718
5678 5676 5674 5673 5671 5669 5668 5666 5664 5663 5662 5660 5658 5656 5654 5653 5651 5649 5647 5646 5644 5643 5642 5641 5639 5638 5637 5636 5635 5634 5633 5633 5632 5632 5631 5631 5631 5632 5633 5634 5635 5636 5637 5639 5640 5642 5645 5647 5648 5650 5653 5655 5658 5662 5665 5669 5673 5676 5678 5680 5683 5685 5686 5689 5691 5694 5697 5699 5702 5705 5707 5709 5711 5713
5678 5676 5674 5673 5671 5669 5667 5666 5664 5663 5661 5660 5658 5656 5654 5652 5650 5648 5646 5644 5642 5641 5640 5638 5637 5636 5634 5633 5632 5631 5630 5629 5628 5628 5627 5627 5627 5628 5628 5629 5630 5631 5633 5634 5635 5637 5639 5640 5642 5645 5647 5651 5654 5657 5661 5665 5668 5671 5674 5676 5678 5680 5682 5684 5686 5689 5691 5694 5697 5699 5702 5704 5706 5708
5679 5677 5675 5673 5671 5669 5667 5665 5664 5663 5661 5659 5657 5655 5653 5651 5649 5647 5644 5642 5640 5639 5637 5636 5634 5633 5631 5630 5628 5627 5625 5624 5624 5623 5623 5623 5623 5623 5624 5625 5625 5627 5628 5629 5630 5631 5633 5634 5637 5641 5644 5647 5650 5653 5657 5660 5663 5666 5669 5672 5674 5676 5678 5681 5683 5685 5687 5689 5692 5694 5697 5700 5702 5704
5679 5677 5675 5673 5671 5669 5667 5666 5664 5663 5661 5659 5657 5655 5653 5650 5648 5645 5643 5640 5638 5636 5634 5633 5632 5630 5628 5626 5624 5623 5621 5620 5619 5619 5619 5619 5619 5619 5619 5620 5621 5622 5623 5624 5625 5626 5628 5631 5635 5637 5640 5643 5646 5649 5652 5656 5659 5662 5665 5668 5670 5672 5674 5676 5678 5680 5683 5685 5688 5690 5693 5695 5697 5699
5680 5678 5676 5674 5672 5670 5668 5666 5665 5663 5661 5659 5657 5654 5652 5649 5646 5643 5641 5638 5636 5634 5632 5631 5629 5627 5625 5623 5621 5619 5617 5616 5615 5614 5614 5614 5615 5615 5615 5616 5617 5617 5619 5620 5621 5622 5625 5629 5631 5634 5637 5640 5643 5646 5649 5652 5655 5658 5661 5664 5666 5668 5670 5672 5674 5677 5679 5681 5684 5686 5689 5691 5693 5694
5680 5678 5677 5675 5673 5671 5669 5666 5664 5662 5660 5658 5656 5654 5650 5647 5644 5641 5639 5636 5634 5632 5630 5628 5626 5624 5621 5619 5617 5615 5613 5612 5611 5610 5610 5610 5611 5611 5612 5612 5613 5614 5615 5616 5617 5620 5623 5626 5628 5631 5634 5637 5639 5642 5646 5649 5652 5655 5658 5661 5663 5665 5666 5668 5670 5673 5675 5678 5680 5682 5685 5687 5689 5690